User: anonymous   Login
Location: Unspecified
(0.0000°N, 0.0000°E)
Time: 12:09:26
(UTC+01:00)
Language:

Cosmos 1515 Rocket - Orbit

View from above orbital plane
View from above orbital plane
View from above satellite
View from above satellite

Ground track
Ground track

The orbit data is extracted from the following two-line orbital elements,

1 14552U 83122B   17023.52661905  .00000107  00000-0  10193-4 0  9996
2 14552  82.5225 212.0454 0015748 276.9949  82.9475 14.83379415787734
Epoch (UTC): 23 January 2017 12:38:19
Eccentricity: 0.0015748
inclination: 82.5225°
perigee height: 607 km
apogee height: 630 km
right ascension of ascending node: 212.0454°
argument of perigee: 276.9949°
revolutions per day: 14.83379415
mean anomaly at epoch: 82.9475°
orbit number at epoch: 78773

The dashed part of the orbit path shows where the satellite is in the earth's shadow,  

DLR